Find Starlink 34886

NORAD ID: 65683 Int'l Des: 2025-212 Owner: SPXS Country: US Constellation: starlink operational
LEOCIRCULAR

現在のビュー

3D地球を読み込み中...

About Starlink 34886

Starlink 34886 (NORAD 65683) is a starlink constellation satellite (v2 mini) launched Sep 21, 2025 by SPXS of US. It operates in LEO, CIRCULAR orbit with a mass of 575.00 kg.

次回通過

Passes for default location (London). Set your location on the main map for personalized predictions.

高度履歴

Loading altitude history...

軌道要素

1 65683U 25212H 26263.26183863 .00022976 00000-0 74894-3 0 9997
2 65683 53.1572 160.4733 0000877 89.8660 270.2442 15.31740340 57007
Epoch: Sep 20, 2026 • Age: 23 hours

現在のステータス

高度 487.1 km
遠地点 / 近地点 N/A
速度 7.62 km/s
衛星直下点 -46.95°S, 20.65°E
打ち上げ日 Sep 21, 2025
運用期間 0.9 years
タイプ internet

技術仕様

分類 Payload
質量 575.00 kg
乾燥質量 530.00 kg
長さ 0.30 m
スパン 29.00 m
形状 ? Box + pan
製造者 SPXS
バスタイプ Starlink V2MO
フェーズステータス In Orbit
所有者/国 SPXS/US

Most Searched